Location: Kellogg
(38.0159°N, 90.0546°W)
Time: 07:18:36
(UTC+00:00)

Vanguard 1 Rocket - Pass Details

Date: 15 September 2024
Orbit: 650 x 4218 km, 34.3° (Epoch: 05 October)

Event Time Altitude Azimuth Distance (km) Brightness Sun altitude
Rises 07:44:48 0° 211° (SSW) 4,698 - -42.0°
Reaches altitude 10° 07:47:38 10° 203° (SSW) 4,081 - -41.6°
Exits shadow 07:56:34 39° 151° (SSE) 3,379 10.0 -40.5°
Maximum altitude 07:58:19 40° 138° (SE) 3,507 10.1 -40.3°
Drops below altitude 10° 08:16:48 10° 78° (ENE) 6,936 12.4 -37.7°
Sets 08:23:29 0° 73° (ENE) 8,279 13.1 -36.7°
